Location: College Park
(38.9810°N, 76.9370°W)
Time: 14:05:37
(UTC-04:00)

N. Korean satellite - Pass Details

Date: 05 January 2018
Orbit: 458 x 513 km, 97.2° (Epoch: 23 April)

Event Time Altitude Azimuth Distance (km) Brightness Sun altitude
Rises 18:34:31 0° 186° (S) 2,613 10.6 -17.9°
Reaches altitude 10° 18:36:44 10° 196° (SSW) 1,728 9.7 -18.3°
Maximum altitude 18:40:09 34° 262° (W) 848 8.4 -18.9°
Drops below altitude 10° 18:43:34 10° 329° (NNW) 1,720 9.5 -19.6°
Sets 18:45:47 0° 339° (NNW) 2,599 10.4 -20.0°
